Regional Weather Roundup
Issued by NWS

Home | Current Version | Previous Version | Text Only | Print | Product List | Glossary Off
Versions: 1 2 3 4 5 6 7 8 9 10 11 12 13 14 15 16 17 18 19 20 21 22 23 24 25 26 27 28 29 30 31 32 33 34 35 36 37 38 39 40 41 42 43 44 45 46 47 48 49 50

000
ASUS43 KMPX 050801
RWRMN
WEATHER ROUNDUP FOR MINNESOTA
NATIONAL WEATHER SERVICE TWIN CITIES/CHANHASSEN MN
200 AM CST THU MAR 05 2015


NOTE: "FAIR" INDICATES FEW OR NO CLOUDS BELOW 12,000 FEET WITH NO
SIGNIFICANT WEATHER AND/OR OBSTRUCTIONS TO VISIBILITY. N/A MEANS
CURRENT SKY AND/OR WEATHER CONDITIONS ARE NOT AVAILABLE.

MNZ060>063-068>070-050900-
   Twin Cities Metro

CITY           SKY/WX    TMP DP  RH WIND       PRES   REMARKS
TWIN CITIES    CLEAR     -4 -12  68 NW7       30.45R WCI -18
ST PAUL        CLEAR     -2 -11  65 NW10      30.47R WCI -19
CRYSTAL        CLEAR     -4 -12  68 W7        30.44R WCI -18
BLAINE         CLEAR     -4 -11  71 W5        30.43R WCI -15
LAKEVILLE      CLEAR     -8 -13  77 W3        30.44R
EDEN PRAIRIE   CLEAR     -4 -11  72 NW8       30.44R WCI -19
SOUTH ST PAUL  FAIR      -2 -12  63 CALM      30.45R
LAKE ELMO      FAIR      -4 -11  71 W3        30.44R
$$
MNZ001>005-007-008-013>017-022>024-027-028-050900-
   Northwest Minnesota

CITY           SKY/WX    TMP DP  RH WIND       PRES   REMARKS
BEMIDJI        CLEAR    -16 -21  78 SW3       30.33S
HALLOCK        CLEAR    -15 -20  76 SW8       30.35F WCI -32
ROSEAU         CLEAR    -11 -18  70 SW7       30.33S WCI -26
WARROAD        CLEAR    -11 -17  77 SW6       30.31S WCI -25
THIEF RVR FALL CLEAR    -13 -18  77 SW6       30.35R WCI -27
CROOKSTON      CLEAR    -11 -17  77 SW8       30.41S WCI -28
FOSSTON        CLEAR    -20 -26  76 S5        30.36S WCI -33
DETROIT LAKES  CLEAR     -9 -13  84 SW5       30.38S WCI -21
MOORHEAD       CLEAR     -8 -11  84 SW5       30.43F WCI -19
PARK RAPIDS    CLEAR    -15 -21  74 S3        30.35R
MAHNOMEN       FAIR     -10 -15  78 SW6       30.37S WCI -23
$$
MNZ006-009>011-018-025>026-050900-
   North Central Minnesota

CITY           SKY/WX    TMP DP  RH WIND       PRES   REMARKS
BAUDETTE       CLEAR    -17 -21  82 S5        30.31R WCI -30
FLAG ISLAND    CLEAR    -15 -20  76 S5        30.30R WCI -27
INTL FALLS     CLEAR    -21 -27  73 CALM      30.32R
WASKISH        CLEAR    -11 -17  77 SW6       30.33S WCI -25
BIG FORK       CLEAR    -24 -29  76 CALM      30.33R
LONGVILLE      CLEAR    -24 -29  76 CALM      30.36S
GRAND RAPIDS   CLEAR    -11 -13  92 W5        30.32S WCI -23
CRANE LAKE     CLEAR    -26 -33  68 CALM      30.35R
ORR            CLEAR    -18 -24  76 CALM      30.29R
COOK           CLEAR    -22 -27  76 CALM      30.32R
WALKER         FAIR     -13 -18  80 SW3       30.35R
$$
MNZ012-019>021-037-050900-
   Northeast Minnesota

CITY           SKY/WX    TMP DP  RH WIND       PRES   REMARKS
DULUTH         CLEAR    -11 -17  75 W8        30.32R WCI -28
ELY            CLEAR    -18 -24  76 CALM      30.30R
HIBBING        CLEAR    -22 -27  77 W3        30.33R
EVELETH        CLEAR    -15 -18  84 W6        30.33S WCI -29
DULUTH HARBOR  CLEAR     -8 -15  71 CALM      30.44R
TWO HARBORS    CLEAR     -8 -17  65 CALM      30.32S
SILVER BAY     CLEAR    -13 -20  70 CALM      30.31S
GRAND MARAIS     N/A     -4 -14  62 NW14G22   30.35R WCI -24
G MARAIS ARPRT CLEAR    -15 -20  76 SW3       30.22R
$$
MNZ029>031-032-039>041-046>048-054>057-064-050900-
   West Central Minnesota

CITY           SKY/WX    TMP DP  RH WIND       PRES   REMARKS
FERGUS FALLS   CLEAR    -11 -17  77 S3        30.47S
WHEATON        CLEAR    -11 -17  77 SW6       30.48R WCI -25
MORRIS         CLEAR    -11 -17  77 W6        30.43S WCI -25
ALEXANDRIA     PTCLDY   -15 -19  82 W7        30.39S WCI -31
ELBOW LAKE     FAIR     -13 -18  81 SW6       30.42S WCI -28
WADENA         CLEAR    -13 -18  77 SW5       30.38R WCI -25
GLENWOOD       CLEAR    -15 -18  84 W7        30.41R WCI -31
APPLETON       CLEAR    -13 -18  77 W6        30.47R WCI -27
BENSON         CLEAR    -11 -17  77 W3        30.44R
ORTONVILLE     CLEAR     -6 -15  65 NW8       30.45S WCI -21
MADISON        CLEAR     -8 -15  71 W7        30.47S WCI -22
WILLMAR        FAIR      -8 -13  77 W7        30.44S WCI -22
$$
MNZ033>034-036-042>043-049>051-058-059-050900-
   Central Minnesota

CITY           SKY/WX    TMP DP  RH WIND       PRES   REMARKS
ST CLOUD       PTCLDY    -8 -14  74 W8        30.42S WCI -24
SAUK CENTRE    FAIR     -12 -16  82 W5        30.41S WCI -24
PAYNESVILLE    CLEAR    -14 -18  83 SW6       30.43S WCI -28
AITKIN         CLEAR    -11 -20  64 CALM      30.37R
PINE RIVER     CLEAR    -20 -26  76 CALM      30.40S
BRAINERD       CLEAR    -20 -23  86 CALM      30.39S
STAPLES        CLEAR    -18 -24  76 CALM      30.38S
LONG PRAIRIE   FAIR     -15 -20  76 CALM      30.40S
LITTLE FALLS   CLEAR    -17 -24  70 CALM      30.42S
LITCHFIELD     CLEAR     -6 -11  77 CALM      30.43S
BUFFALO        CLEAR     -7 -13  76 W5        30.44S WCI -18
MAPLE LAKE     CLEAR     -5 -10  81 W7        30.43S WCI -19
$$
MNZ037-044-045-052-053-050900-
   East Central Minnesota

CITY           SKY/WX    TMP DP  RH WIND       PRES   REMARKS
PRINCETON      PTCLDY    -9 -17  70 CALM      30.42S
MORA           CLEAR    -18 -24  76 CALM      30.42S
CAMBRIDGE      CLEAR     -9 -17  70 CALM      30.41R
RUSH CITY      MOCLDY   -10 -16  77 CALM      30.43R
MOOSE LAKE     CLEAR    -11 -18  70 CALM      30.38R
HINCKLEY       FAIR      -9 -17  70 W3        30.40S
CLOQUET        CLEAR    -11 -18  70 W6        30.34S WCI -25
MCGREGOR       CLEAR     -9 -17  70 CALM      30.38S
$$
MNZ071>073-080-081-089-090-097-098-050900-
   Southwest Minnesota

CITY           SKY/WX    TMP DP  RH WIND       PRES   REMARKS
MONTEVIDEO     FAIR      -8 -13  77 NW5       30.47S WCI -19
GRANITE FALLS  CLEAR     -8 -14  76 W6        30.47F WCI -21
CANBY          CLEAR     -8 -14  74 W5        30.46S WCI -19
MARSHALL       CLEAR     -8 -17  65 W8        30.44F WCI -23
REDWOOD FALLS  CLEAR     -6 -13  71 NW9       30.45S WCI -23
OLIVIA         CLEAR     -6 -13  71 NW7       30.45S WCI -20
PIPESTONE      CLEAR     -8 -11  84 NW5       30.38S WCI -19
WINDOM         CLEAR     -6 -11  77 CALM      30.42R
WORTHINGTON    CLEAR     -6 -11  77 NW6       30.42S WCI -18
JACKSON        CLEAR     -6 -13  71 NW7       30.42R WCI -20
TRACY          CLEAR     -5 -13  69 W5        30.43S WCI -16
SLAYTON        CLEAR     -8 -16  69 CALM      30.41R
$$
MNZ065>067-074>077-082>085-091>093-050900-
   South Central Minnesota

CITY           SKY/WX    TMP DP  RH WIND       PRES   REMARKS
MANKATO        CLEAR     -2  -9  71 NW5       30.44R WCI -12
NEW ULM        CLEAR     -8 -15  71 W6        30.45R WCI -21
ST JAMES       CLEAR     -4 -11  71 W8        30.46R WCI -19
FAIRMONT       CLEAR     -4 -11  71 NW7       30.42R WCI -18
GLENCOE        CLEAR     -5 -10  80 W8        30.43S WCI -20
FARIBAULT      CLEAR     -6 -11  77 W5        30.43R WCI -17
OWATONNA       CLEAR     -8 -11  84 CALM      30.43R
WASECA         CLEAR     -6 -11  77 W3        30.44R
ALBERT LEA     CLEAR     -6  -9  84 NW5       30.41S WCI -17
$$
MNZ078>079-086>088-094>096-050900-
   Southeast Minnesota

CITY           SKY/WX    TMP DP  RH WIND       PRES   REMARKS
ROCHESTER      CLEAR     -8 -15  71 NW9       30.39S WCI -25
RED WING       CLEAR     -9 -17  70 CALM      30.45R
STANTON        CLEAR     -5 -13  69 W3        30.43R
DODGE CENTER   PTCLDY    -6 -11  77 W6        30.39R WCI -18
WINONA         CLEAR      0  -8  71 NW3       30.46F
AUSTIN         CLEAR     -6 -11  77 NW3       30.41S
PRESTON        CLEAR     -8 -14  74 NW8       30.39S WCI -24
$$
ABBREVIATIONS USED IN REMARKS
   TC - TEMPERATURES IN CELSIUS
  WCI - WIND CHILL INDEX
   HX - HEAT INDEX
  VSB - VISIBILITY
$$


USA.gov is the U.S. government's official web portal to all federal, state and local government web resources and services.